Armorel, AR

2:57 PM CDT on September 26, 2016 (GMT -0500)
Blytheville Municipal

Weather History for KHKA - November, 2012

Change the Weather History Date:

Friday, November 9, 2012

  Actual Average Record
Temperature  
Mean Temperature 57 °F -  
Max Temperature 71 °F 63 °F 79 °F (1945)
Min Temperature 43 °F 45 °F 18 °F (1991)
Degree Days  
Heating Degree Days 8    
Growing Degree Days 7 (Base 50)    
Moisture  
Dew Point 43 °F    
Average Humidity 62    
Maximum Humidity 79    
Minimum Humidity 42    
Precipitation  
Precipitation 0.00 in - - ()
Sea Level Pressure  
Sea Level Pressure 30.14 in    
Wind  
Wind Speed 9 mph (South)    
Max Wind Speed 20 mph    
Max Gust Speed 26 mph    
Visibility 10 miles    
Events      
Averages and records for this station are not official NWS values.
T = Trace of Precipitation, MM = Missing Value Source: NWS Daily Summary

Daily Weather History Graph

Daily Weather History Graph

Search for Another Location

Airport or City:

Trip Planner

Search our weather history database for the weather conditions in past years. The results will help you decide how hot, cold, wet, or windy it might be!

Date:

Astronomy

Nov. 09, 2012 Rise Set
Actual Time 6:30 AM CST 4:55 PM CST
Civil Twilight 6:03 AM CST 5:22 PM CST
Nautical Twilight 5:32 AM CST 5:53 PM CST
Astronomical Twilight 5:02 AM CST 6:23 PM CST
Moon 1:37 AM CST (11/9) 2:01 PM CST (11/9)
Length of Visible Light 11h 19m
Length of Day
10h 25m
Waning Crescent, 23% of the Moon is Illuminated
Nov 9
Waning Crescent
Nov 13
New
Nov 20
First Quarter
Nov 28
Full
Dec 6
Last Quarter

Hourly Weather History & Observations

Time (CST) Temp. Windchill Dew Point Humidity Pressure Visibility Wind Dir Wind Speed Gust Speed Precip Events Conditions
12:53 AM 43.0 °F 40.3 °F 36.0 °F 76% 30.16 in 10.0 mi South 4.6 mph - N/A   Clear
1:53 AM 44.1 °F 41.5 °F 36.0 °F 73% 30.17 in 10.0 mi South 4.6 mph - N/A   Clear
2:53 AM 43.0 °F 38.8 °F 36.0 °F 76% 30.18 in 10.0 mi SSE 6.9 mph - N/A   Clear
3:53 AM 43.0 °F 39.5 °F 36.0 °F 76% 30.18 in 10.0 mi SSE 5.8 mph - N/A   Clear
4:53 AM 44.1 °F 39.5 °F 37.0 °F 76% 30.19 in 10.0 mi SSE 8.1 mph - N/A   Clear
5:53 AM 44.1 °F 38.6 °F 37.9 °F 79% 30.18 in 10.0 mi South 10.4 mph - N/A   Clear
6:53 AM 45.0 °F 40.1 °F 37.9 °F 76% 30.19 in 10.0 mi South 9.2 mph - N/A   Clear
7:53 AM 48.9 °F - 39.9 °F 71% 30.20 in 10.0 mi South 8.1 mph - N/A   Partly Cloudy
8:53 AM 55.0 °F - 41.0 °F 59% 30.20 in 10.0 mi South 10.4 mph - N/A   Clear
9:53 AM 61.0 °F - 41.0 °F 48% 30.20 in 10.0 mi SSW 19.6 mph 25.3 mph N/A   Clear
10:53 AM 64.9 °F - 42.1 °F 43% 30.18 in 10.0 mi SSW 17.3 mph 23.0 mph N/A   Clear
11:53 AM 69.1 °F - 45.0 °F 42% 30.15 in 10.0 mi SSW 17.3 mph 26.5 mph N/A   Clear
12:53 PM 70.0 °F - 48.0 °F 46% 30.12 in 10.0 mi South 18.4 mph 24.2 mph N/A   Clear
1:53 PM 71.1 °F - 51.1 °F 49% 30.10 in 10.0 mi SSW 11.5 mph 24.2 mph N/A   Clear
2:53 PM 71.1 °F - 53.1 °F 53% 30.09 in 10.0 mi SSW 12.7 mph 21.9 mph N/A   Clear
3:53 PM 70.0 °F - 52.0 °F 53% 30.08 in 10.0 mi SSW 16.1 mph 24.2 mph N/A   Clear
4:53 PM 66.0 °F - 52.0 °F 60% 30.08 in 10.0 mi South 10.4 mph - N/A   Clear
5:53 PM 61.0 °F - 50.0 °F 67% 30.09 in 10.0 mi SSE 8.1 mph - N/A   Clear
6:53 PM 61.0 °F - 48.0 °F 62% 30.09 in 10.0 mi South 10.4 mph - N/A   Clear
7:53 PM 59.0 °F - 43.0 °F 55% 30.10 in 10.0 mi South 8.1 mph - N/A   Clear
8:53 PM 57.9 °F - 42.1 °F 56% 30.11 in 10.0 mi South 10.4 mph - N/A   Clear
9:53 PM 55.9 °F - 41.0 °F 57% 30.12 in 10.0 mi South 9.2 mph - N/A   Clear
11:53 PM 53.1 °F - 41.0 °F 64% 30.12 in 10.0 mi South 6.9 mph - N/A   Clear